"TOA5","MOW","CPU:UNC_MeetingWaters","DataHourly"
"TIMESTAMP","SondeTempC","SpCond","DOSat","DOmg","pH","Turb","BattVolt_Min"
"TS","","","","","","",""
"","Smp","Smp","Smp","Smp","Smp","Smp","Min"
"2006-10-01 00:00:00",15.1499996185,0.00899999961257,84.0999984741,8.46000003815,7.23999977112,15.0,12.8000001907
"2006-10-01 01:00:00",15.1400003433,0.00899999961257,84.0999984741,8.44999980927,7.26999998093,12.8000001907,12.7899999619
"2006-10-01 02:00:00",14.5200004578,0.00899999961257,83.9000015259,8.55000019073,7.28999996185,12.6999998093,12.7700004578
"2006-10-01 03:00:00",14.8000001907,0.00899999961257,83.5,8.46000003815,7.32000017166,12.3999996185,12.75
"2006-10-01 04:00:00",15.1000003815,0.00899999961257,84.0,8.44999980927,7.34000015259,12.5,12.720000267
"2006-10-01 05:00:00",15.3000001907,0.00899999961257,84.0,8.40999984741,7.34000015259,12.3999996185,12.7100000381
"2006-10-01 06:00:00",15.2399997711,0.00899999961257,84.0,8.42000007629,7.36000013351,13.0,12.6899995804
"2006-10-01 07:00:00",15.1700000763,0.00899999961257,84.0999984741,8.46000003815,7.36999988556,12.3000001907,12.6700000763
"2006-10-01 08:00:00",14.9200000763,0.00899999961257,84.0,8.48999977112,7.38000011444,11.8999996185,12.6499996185
"2006-10-01 09:00:00",15.5900001526,0.00899999961257,84.5999984741,8.42000007629,7.36999988556,12.1000003815,12.720000267
"2006-10-01 10:00:00",16.4300003052,0.00899999961257,85.5,8.35999965668,7.34000015259,12.1999998093,13.4099998474
"2006-10-01 11:00:00",21.7700004578,0.00700000021607,100.199996948,8.80000019073,6.46000003815,12.3999996185,14.1099996567
"2006-10-01 12:00:00",20.1299991608,0.00600000005215,89.9000015259,8.14999961853,5.82000017166,12.3000001907,13.0900001526
"2006-10-01 13:00:00",24.3400001526,0.00499999988824,91.0999984741,7.61999988556,5.03999996185,11.8999996185,14.0699996948
"2006-10-01 14:00:00",26.1900005341,0.00300000002608,91.9000015259,7.42999982834,4.36000013351,12.3000001907,14.0
"2006-10-01 15:00:00",24.8700008392,0.0010000000475,92.3000030518,7.65000009537,3.8599998951,12.5,13.1499996185
"2006-10-01 16:00:00",22.4899997711,0.0010000000475,90.1999969482,7.82000017166,5.80000019073,12.3999996185,13.0399999619
"2006-10-01 17:00:00",20.9799995422,0.0010000000475,89.4000015259,7.96999979019,6.07999992371,12.3999996185,12.9499998093
"2006-10-01 18:00:00",19.9799995422,0.00200000009499,88.0999984741,8.02000045776,6.69000005722,12.6999998093,12.9200000763
"2006-10-01 19:00:00",18.8999996185,0.00200000009499,87.4000015259,8.11999988556,6.98000001907,12.1999998093,12.8900003433
"2006-10-01 20:00:00",17.9899997711,0.00200000009499,86.5,8.18999958038,7.11000013351,12.1000003815,12.8699998856
"2006-10-01 21:00:00",17.2999992371,0.00200000009499,85.9000015259,8.25,7.17000007629,12.3000001907,12.8500003815
"2006-10-01 22:00:00",16.3700008392,0.00200000009499,85.5,8.36999988556,7.25,11.6999998093,12.8199996948
"2006-10-01 23:00:00",16.2800006866,0.00200000009499,85.0999984741,8.35000038147,7.30000019073,12.8999996185,12.8000001907
"2006-10-02 00:00:00",15.6400003433,0.00300000002608,84.5999984741,8.42000007629,7.36000013351,12.8000001907,12.779999733
"2006-10-02 01:00:00",15.5699996948,0.00300000002608,84.3000030518,8.39999961853,7.36000013351,12.3999996185,12.7600002289
"2006-10-02 02:00:00",14.8999996185,0.00300000002608,83.9000015259,8.47999954224,7.38999986649,12.1999998093,12.7299995422
"2006-10-02 03:00:00",14.3299999237,0.00300000002608,83.4000015259,8.53999996185,7.44000005722,11.6999998093,12.6700000763
"2006-10-02 04:00:00",14.1000003815,0.00300000002608,82.9000015259,8.52999973297,7.46000003815,11.6000003815,12.6800003052
"2006-10-02 05:00:00",13.5600004196,0.00300000002608,82.4000015259,8.56999969482,7.51000022888,11.8999996185,12.6700000763
"2006-10-02 06:00:00",12.6800003052,0.00300000002608,82.3000030518,8.72999954224,7.53999996185,12.6999998093,12.6400003433
"2006-10-02 07:00:00",13.0100002289,0.00300000002608,81.9000015259,8.63000011444,7.48999977112,11.5,12.6300001144
"2006-10-02 08:00:00",12.6599998474,0.00300000002608,81.6999969482,8.67000007629,7.57000017166,11.3000001907,12.6199998856
"2006-10-02 09:00:00",13.3900003433,0.00300000002608,82.8000030518,8.64999961853,7.55999994278,11.6000003815,12.6400003433
"2006-10-02 10:00:00",15.0,0.00400000018999,84.5,8.52000045776,7.51999998093,11.5,13.5799999237
"2006-10-02 11:00:00",21.4599990845,0.00300000002608,100.900001526,8.92000007629,7.13999986649,11.1999998093,13.5
"2006-10-02 12:00:00",17.3700008392,0.00499999988824,89.5999984741,8.60000038147,8.14999961853,16.7000007629,13.0799999237
"2006-10-02 13:00:00",21.2000007629,0.00899999961257,89.9000015259,7.98999977112,7.96999979019,34.2000007629,14.1099996567
"2006-10-02 14:00:00",23.2800006866,0.00499999988824,89.8000030518,7.65999984741,7.19999980927,34.7999992371,14.0699996948
"2006-10-02 15:00:00",23.6399993896,0.00200000009499,90.1999969482,7.63999986649,5.46000003815,30.3999996185,13.1099996567
"2006-10-02 16:00:00",21.7299995422,0.00200000009499,89.4000015259,7.86000013351,6.30000019073,23.8999996185,13.0600004196
"2006-10-02 17:00:00",20.4599990845,0.00200000009499,89.0999984741,8.02999973297,6.96999979019,25.2999992371,12.9600000381
"2006-10-02 18:00:00",19.3999996185,0.00200000009499,88.4000015259,8.13000011444,7.19000005722,21.5,12.9300003052
"2006-10-02 19:00:00",18.0400009155,0.00200000009499,87.3000030518,8.26000022888,7.26000022888,20.0,12.8999996185
"2006-10-02 20:00:00",17.3700008392,0.00200000009499,86.6999969482,8.31999969482,7.40000009537,19.6000003815,12.8699998856
"2006-10-02 21:00:00",16.6599998474,0.00200000009499,85.6999969482,8.35000038147,7.48999977112,18.1000003815,12.8500003815
"2006-10-02 22:00:00",15.6000003815,0.00200000009499,85.0999984741,8.47000026703,7.55999994278,17.3999996185,12.8299999237
"2006-10-02 23:00:00",15.5100002289,0.00300000002608,84.8000030518,8.46000003815,7.59999990463,16.7999992371,12.8000001907
"2006-10-03 00:00:00",15.0799999237,0.00300000002608,84.5,8.51000022888,7.63999986649,17.2000007629,12.779999733
"2006-10-03 01:00:00",14.1000003815,0.00300000002608,83.6999969482,8.60999965668,7.63999986649,16.8999996185,12.7700004578
"2006-10-03 02:00:00",13.970000267,0.00300000002608,83.1999969482,8.57999992371,7.71999979019,16.0,12.7399997711
"2006-10-03 03:00:00",13.2899999619,0.00300000002608,82.5,8.64000034332,7.73999977112,15.6999998093,12.720000267
"2006-10-03 04:00:00",13.0100002289,0.00300000002608,82.1999969482,8.65999984741,7.80999994278,15.5,12.6999998093
"2006-10-03 05:00:00",12.4799995422,0.00300000002608,81.5999984741,8.69999980927,7.84999990463,14.5,12.6800003052
"2006-10-03 06:00:00",12.3100004196,0.00300000002608,81.6999969482,8.73999977112,7.86000013351,14.6000003815,12.6499996185
"2006-10-03 07:00:00",11.9399995804,0.00300000002608,81.1999969482,8.77000045776,7.88000011444,14.5,12.6300001144
"2006-10-03 08:00:00",11.7899999619,0.00300000002608,81.3000030518,8.80000019073,7.88999986649,14.0,12.6199998856
"2006-10-03 09:00:00",12.7100000381,0.00400000018999,82.4000015259,8.73999977112,7.88999986649,13.6999998093,12.6300001144
"2006-10-03 10:00:00",14.4399995804,0.00400000018999,84.0,8.57999992371,7.82999992371,13.3999996185,13.5200004578
"2006-10-03 11:00:00",18.3799991608,0.00400000018999,89.4000015259,8.39999961853,8.63000011444,17.7999992371,13.3199996948
"2006-10-03 12:00:00",18.1100006104,0.00600000005215,87.8000030518,8.28999996185,7.92999982834,17.5,13.1499996185
"2006-10-03 13:00:00",21.0400009155,0.00600000005215,90.0,8.02000045776,7.78999996185,17.3999996185,14.0799999237
"2006-10-03 14:00:00",24.0200004578,0.00200000009499,89.8000030518,7.55999994278,7.07000017166,15.8999996185,14.0
"2006-10-03 15:00:00",24.6499996185,0.00200000009499,90.0999984741,7.5,5.92000007629,15.3999996185,13.1700000763
"2006-10-03 16:00:00",22.0,0.00200000009499,89.8000030518,7.84999990463,6.26000022888,16.5,13.0600004196
"2006-10-03 17:00:00",21.2700004578,0.00200000009499,89.1999969482,7.90999984741,6.57999992371,15.8999996185,12.9600000381
"2006-10-03 18:00:00",20.2299995422,0.00200000009499,88.5,8.01000022888,6.82000017166,16.2000007629,12.9200000763
"2006-10-03 19:00:00",19.3999996185,0.00200000009499,87.8000030518,8.07999992371,7.07000017166,15.6000003815,12.9099998474
"2006-10-03 20:00:00",18.4300003052,0.00200000009499,87.0999984741,8.17000007629,7.23000001907,15.5,12.8800001144
"2006-10-03 21:00:00",17.7700004578,0.00200000009499,86.4000015259,8.22000026703,7.32999992371,15.0,12.8500003815
"2006-10-03 22:00:00",17.25,0.00200000009499,86.0,8.27000045776,7.40000009537,16.0,12.8299999237
"2006-10-03 23:00:00",16.5499992371,0.00300000002608,85.5,8.34000015259,7.46000003815,14.1999998093,12.8100004196
"2006-10-04 00:00:00",15.6199998856,0.00300000002608,84.6999969482,8.43000030518,7.5,13.8999996185,12.7899999619
"2006-10-04 01:00:00",15.6899995804,0.00300000002608,84.5,8.39999961853,7.53999996185,13.5,12.7299995422
"2006-10-04 02:00:00",15.0799999237,0.00300000002608,84.1999969482,8.47000026703,7.57999992371,14.1000003815,12.7399997711
"2006-10-04 03:00:00",14.6899995804,0.00300000002608,83.5999984741,8.47999954224,7.61999988556,13.8000001907,12.720000267
"2006-10-04 04:00:00",14.2899999619,0.00300000002608,83.1999969482,8.52000045776,7.65000009537,14.1000003815,12.6999998093
"2006-10-04 05:00:00",14.1700000763,0.00300000002608,82.6999969482,8.48999977112,7.67999982834,13.8999996185,12.6800003052
"2006-10-04 06:00:00",13.6099996567,0.00300000002608,82.6999969482,8.60000038147,7.71999979019,13.1000003815,12.6599998474
"2006-10-04 07:00:00",13.720000267,0.00300000002608,82.4000015259,8.55000019073,7.71000003815,13.5,12.6300001144
"2006-10-04 08:00:00",13.5500001907,0.00300000002608,82.4000015259,8.57999992371,7.75,12.6000003815,12.6300001144
"2006-10-04 09:00:00",14.2600002289,0.00300000002608,83.3000030518,8.53999996185,7.73000001907,13.0,12.6499996185
"2006-10-04 10:00:00",15.9399995804,0.00400000018999,84.9000015259,8.39000034332,7.71000003815,12.1000003815,13.4399995804
"2006-10-04 11:00:00",20.4200000763,0.00400000018999,94.1999969482,8.5,7.59000015259,12.8000001907,13.2700004578
"2006-10-04 12:00:00",20.5400009155,0.00300000002608,89.3000030518,8.03999996185,7.13999986649,12.6000003815,13.1099996567
"2006-10-04 13:00:00",23.7199993134,0.00300000002608,90.8000030518,7.67999982834,5.88999986649,12.6999998093,14.0399999619
"2006-10-04 14:00:00",25.9400005341,0.00200000009499,91.3000030518,7.40999984741,6.03999996185,12.0,13.9499998093
"2006-10-04 15:00:00",25.4200000763,0.0010000000475,91.4000015259,7.5,5.63999986649,13.6999998093,13.2299995422
"2006-10-04 16:00:00",23.3899993896,0.0010000000475,90.0999984741,7.67000007629,6.69999980927,13.6999998093,13.1300001144
"2006-10-04 17:00:00",22.3700008392,0.0010000000475,89.4000015259,7.76000022888,6.94000005722,13.8000001907,12.9799995422
"2006-10-04 18:00:00",21.4400005341,0.00200000009499,88.8000030518,7.84999990463,7.15000009537,14.1000003815,12.9300003052
"2006-10-04 19:00:00",20.6399993896,0.00200000009499,88.1999969482,7.92000007629,7.26000022888,14.3000001907,12.9099998474
"2006-10-04 20:00:00",19.9599990845,0.00200000009499,87.6999969482,7.98000001907,7.34999990463,13.8000001907,12.8800001144
"2006-10-04 21:00:00",19.2800006866,0.00200000009499,87.1999969482,8.05000019073,7.40999984741,13.0,12.8599996567
"2006-10-04 22:00:00",18.7999992371,0.00200000009499,86.8000030518,8.09000015259,7.46000003815,13.8999996185,12.8299999237
"2006-10-04 23:00:00",18.4699993134,0.00200000009499,86.3000030518,8.10000038147,7.5,13.3000001907,12.8100004196
"2006-10-05 00:00:00",18.1299991608,0.00200000009499,85.9000015259,8.11999988556,7.51999998093,13.0,12.7899999619
"2006-10-05 01:00:00",17.7299995422,0.00300000002608,85.9000015259,8.18000030518,7.55000019073,13.0,12.779999733
"2006-10-05 02:00:00",17.1499996185,0.00300000002608,85.5999984741,8.25,7.53999996185,12.8999996185,12.7600002289
"2006-10-05 03:00:00",16.8799991608,0.00300000002608,85.0999984741,8.23999977112,7.55999994278,13.3000001907,12.7399997711
"2006-10-05 04:00:00",16.6399993896,0.00300000002608,84.6999969482,8.25,7.59000015259,12.8000001907,12.720000267
"2006-10-05 05:00:00",16.4400005341,0.00300000002608,84.6999969482,8.27999973297,7.61999988556,12.8999996185,12.6999998093
"2006-10-05 06:00:00",16.7000007629,0.00300000002608,84.9000015259,8.25,7.63000011444,14.3000001907,12.6800003052
"2006-10-05 07:00:00",16.6499996185,0.00300000002608,85.3000030518,8.31000041962,7.61999988556,14.8000001907,12.6599998474
"2006-10-05 08:00:00",16.4699993134,0.00300000002608,84.6999969482,8.27000045776,7.69000005722,14.3000001907,12.6499996185
"2006-10-05 09:00:00",16.8400001526,0.00400000018999,85.0999984741,8.25,7.69999980927,14.0,12.6700000763
"2006-10-05 10:00:00",17.9599990845,0.00400000018999,86.0,8.14999961853,7.69000005722,13.8999996185,13.1199998856
"2006-10-05 11:00:00",20.6399993896,0.00400000018999,90.1999969482,8.10000038147,7.61999988556,13.6999998093,13.1899995804
"2006-10-05 12:00:00",21.2099990845,0.00400000018999,88.6999969482,7.86999988556,7.46999979019,12.6999998093,13.0900001526
"2006-10-05 13:00:00",24.0,0.00400000018999,90.3000030518,7.59999990463,6.65000009537,12.8000001907,14.0200004578
"2006-10-05 14:00:00",26.2999992371,0.00200000009499,91.0999984741,7.34999990463,5.92000007629,12.1999998093,13.9300003052
"2006-10-05 15:00:00",25.9300003052,0.00200000009499,91.0,7.38999986649,5.65000009537,12.5,13.3299999237
"2006-10-05 16:00:00",24.3700008392,0.00200000009499,90.3000030518,7.55000019073,6.65000009537,12.5,13.0900001526
"2006-10-05 17:00:00",23.3400001526,0.00200000009499,89.5999984741,7.63999986649,6.96999979019,13.3999996185,12.970000267
"2006-10-05 18:00:00",22.3199996948,0.00200000009499,88.8000030518,7.71999979019,7.07000017166,14.6999998093,12.9099998474
"2006-10-05 19:00:00",21.5799999237,0.00200000009499,88.1999969482,7.76999998093,7.23999977112,13.6999998093,12.8900003433
"2006-10-05 20:00:00",21.1000003815,0.00200000009499,87.8000030518,7.82000017166,7.32000017166,13.8000001907,12.8800001144
"2006-10-05 21:00:00",20.5900001526,0.00200000009499,87.5,7.86999988556,7.34999990463,13.6000003815,12.8500003815
"2006-10-05 22:00:00",20.2299995422,0.00300000002608,87.3000030518,7.90000009537,7.40000009537,13.3000001907,12.8299999237
"2006-10-05 23:00:00",19.8799991608,0.00300000002608,86.9000015259,7.92000007629,7.40999984741,16.1000003815,12.8000001907
"2006-10-06 00:00:00",19.8299999237,0.00300000002608,86.9000015259,7.92999982834,7.42999982834,14.1999998093,12.779999733
"2006-10-06 01:00:00",19.9799995422,0.00300000002608,87.0,7.90999984741,7.42999982834,15.1999998093,12.7700004578
"2006-10-06 02:00:00",19.9400005341,0.00300000002608,86.9000015259,7.90999984741,7.42999982834,14.1999998093,12.75
"2006-10-06 03:00:00",19.8500003815,0.00300000002608,86.8000030518,7.90999984741,7.44000005722,13.6000003815,12.7299995422
"2006-10-06 04:00:00",19.7800006866,0.00300000002608,86.5999984741,7.90999984741,7.44000005722,13.5,12.720000267
"2006-10-06 05:00:00",19.6700000763,0.00400000018999,86.5,7.92000007629,7.46000003815,13.0,12.7100000381
"2006-10-06 06:00:00",19.6000003815,0.00400000018999,86.5,7.92999982834,7.46999979019,13.1999998093,12.6899995804
"2006-10-06 07:00:00",19.8299999237,0.244000002742,83.0,7.57000017166,8.31000041962,186.399993896,12.6700000763
"2006-10-06 08:00:00",20.5900001526,0.209999993443,80.5999984741,7.23999977112,9.11999988556,532.599975586,12.6700000763
"2006-10-06 09:00:00",21.0,0.148000001907,83.4000015259,7.42999982834,8.82999992371,348.100006104,12.6199998856
"2006-10-06 10:00:00",20.6399993896,0.12800000608,82.5999984741,7.40999984741,8.60999965668,304.600006104,12.6499996185
"2006-10-06 11:00:00",20.0799999237,0.133000001311,80.1999969482,7.28000020981,8.51000022888,162.600006104,12.6700000763
"2006-10-06 12:00:00",19.8400001526,0.172999992967,82.0,7.48000001907,8.90999984741,227.699996948,12.6700000763
"2006-10-06 13:00:00",19.6800003052,0.162000000477,81.3000030518,7.44000005722,9.97000026703,197.399993896,12.6499996185
"2006-10-06 14:00:00",19.1900005341,0.155000001192,79.5,7.34000015259,9.76000022888,129.699996948,12.6400003433
"2006-10-06 15:00:00",18.7999992371,0.0719999969006,79.5,7.40000009537,9.56000041962,97.8000030518,12.6899995804
"2006-10-06 16:00:00",18.6100006104,0.0750000029802,81.5999984741,7.61999988556,9.32999992371,65.6999969482,12.5900001526
"2006-10-06 17:00:00",17.25,0.0719999969006,81.5999984741,7.84999990463,9.21000003815,42.5,12.6099996567
"2006-10-06 18:00:00",15.779999733,0.0729999989271,81.1999969482,8.06000041962,9.22999954224,35.5,12.6000003815
"2006-10-06 19:00:00",14.9499998093,0.0740000009537,80.5,8.11999988556,9.27000045776,39.0,12.5900001526
"2006-10-06 20:00:00",13.8999996185,0.0750000029802,85.0,8.77000045776,9.19999980927,45.7999992371,12.5900001526
"2006-10-06 21:00:00",13.4600000381,0.070000000298,83.8000030518,8.73999977112,9.11999988556,41.0999984741,12.5900001526
"2006-10-06 22:00:00",13.220000267,0.0659999996424,83.3000030518,8.72999954224,9.02999973297,33.7999992371,12.5900001526
"2006-10-06 23:00:00",12.7299995422,0.0619999989867,83.4000015259,8.84000015259,8.97999954224,29.2000007629,12.5699996948
"2006-10-07 00:00:00",12.8900003433,0.0570000000298,83.5,8.81999969482,8.94999980927,23.2000007629,12.5699996948
"2006-10-07 01:00:00",12.4300003052,0.0520000010729,82.9000015259,8.85000038147,8.96000003815,19.6000003815,12.5699996948
"2006-10-07 02:00:00",12.0,0.0460000000894,82.5999984741,8.89999961853,8.97999954224,19.0,12.5600004196
"2006-10-07 03:00:00",12.1300001144,0.0390000008047,82.4000015259,8.85000038147,8.97999954224,18.1000003815,12.5600004196
"2006-10-07 04:00:00",12.1400003433,0.035000000149,82.3000030518,8.84000015259,8.96000003815,18.2000007629,12.5500001907
"2006-10-07 05:00:00",11.9899997711,0.0340000018477,82.0,8.84000015259,8.92000007629,20.0,12.5200004578
"2006-10-07 06:00:00",13.0,0.0340000018477,81.4000015259,8.57999992371,9.10000038147,17.3999996185,12.5399999619
"2006-10-07 07:00:00",15.1400003433,0.0509999990463,81.0999984741,8.15999984741,8.94999980927,29.1000003815,12.529999733
"2006-10-07 08:00:00",13.5699996948,0.0560000017285,81.0999984741,8.43999958038,9.13000011444,32.4000015259,12.5100002289
"2006-10-07 09:00:00",13.3299999237,0.0560000017285,84.0,8.78999996185,9.15999984741,27.2999992371,12.5399999619
"2006-10-07 10:00:00",12.8999996185,0.0560000017285,83.0,8.77000045776,9.02999973297,25.2000007629,12.5399999619
"2006-10-07 11:00:00",13.1700000763,0.0560000017285,83.3000030518,8.73999977112,8.96000003815,23.0,12.5500001907
"2006-10-07 12:00:00",13.220000267,0.0560000017285,84.5,8.85999965668,8.96000003815,24.8999996185,12.5600004196
"2006-10-07 13:00:00",15.8999996185,0.0659999996424,81.9000015259,8.10000038147,8.80000019073,47.7999992371,12.5399999619
"2006-10-07 14:00:00",15.1400003433,0.0640000030398,81.0,8.14999961853,9.02000045776,45.7000007629,12.5799999237
"2006-10-07 15:00:00",14.8900003433,0.0640000030398,85.0,8.59000015259,9.0,49.7000007629,12.5600004196
"2006-10-07 16:00:00",14.8500003815,0.0640000030398,85.0,8.59000015259,8.93000030518,45.7999992371,12.529999733
"2006-10-07 17:00:00",14.8400001526,0.0640000030398,85.0,8.60000038147,8.85999965668,43.4000015259,12.5
"2006-10-07 18:00:00",14.6999998093,0.0640000030398,84.6999969482,8.60000038147,8.84000015259,39.2000007629,12.5200004578
"2006-10-07 19:00:00",14.3500003815,0.0630000010133,84.5,8.64000034332,8.76000022888,33.0999984741,12.4899997711
"2006-10-07 20:00:00",14.3400001526,0.0610000006855,84.4000015259,8.63000011444,8.73999977112,29.2000007629,12.5200004578
"2006-10-07 21:00:00",14.4200000763,0.0590000003576,84.5999984741,8.64000034332,8.72000026703,25.6000003815,12.5200004578
"2006-10-07 22:00:00",14.6700000763,0.0579999983311,85.1999969482,8.64999961853,8.72000026703,25.3999996185,12.5100002289
"2006-10-07 23:00:00",14.8999996185,0.070000000298,85.0999984741,8.60000038147,9.21000003815,1350.0,12.5100002289
"2006-10-08 00:00:00",15.6400003433,0.0729999989271,84.1999969482,8.36999988556,8.98999977112,1204.0,12.5
"2006-10-08 01:00:00",15.9200000763,0.0750000029802,85.8000030518,8.48999977112,8.78999996185,637.900024414,12.5
"2006-10-08 02:00:00",16.3600006104,0.0769999995828,84.6999969482,8.30000019073,8.56000041962,437.799987793,12.4899997711
"2006-10-08 03:00:00",17.0499992371,0.0799999982119,84.5999984741,8.15999984741,8.39000034332,553.099975586,12.4799995422
"2006-10-08 04:00:00",17.5200004578,0.082000002265,84.8000030518,8.10000038147,8.27999973297,550.200012207,12.4899997711
"2006-10-08 05:00:00",17.7700004578,0.0850000008941,84.5999984741,8.05000019073,8.22000026703,583.599975586,12.4899997711
"2006-10-08 06:00:00",17.8500003815,0.0869999974966,84.6999969482,8.03999996185,8.18000030518,536.099975586,12.4899997711
"2006-10-08 07:00:00",17.9899997711,0.0890000015497,84.6999969482,8.02000045776,8.15999984741,293.600006104,12.4799995422
"2006-10-08 08:00:00",17.9899997711,0.0900000035763,84.5,8.0,8.14999961853,185.399993896,12.4799995422
"2006-10-08 09:00:00",17.9799995422,0.0909999981523,84.5,8.0,8.14000034332,197.800003052,12.4799995422
"2006-10-08 10:00:00",18.0100002289,0.0920000001788,84.6999969482,8.02000045776,8.13000011444,135.399993896,12.4799995422
"2006-10-08 11:00:00",18.0499992371,0.0939999967813,84.8000030518,8.02000045776,8.14999961853,95.9000015259,12.4799995422
"2006-10-08 12:00:00",18.0900001526,0.0949999988079,85.0,8.02999973297,8.18000030518,66.1999969482,12.4799995422
"2006-10-08 13:00:00",18.0499992371,0.0869999974966,85.0999984741,8.05000019073,8.18999958038,60.7000007629,12.5100002289
"2006-10-08 14:00:00",17.6499996185,0.0860000029206,85.3000030518,8.13000011444,8.19999980927,54.7000007629,12.4899997711
"2006-10-08 15:00:00",17.4500007629,0.0860000029206,85.9000015259,8.22000026703,8.34000015259,43.0999984741,12.5200004578
"2006-10-08 16:00:00",17.3899993896,0.0869999974966,86.0,8.23999977112,8.52999973297,39.0999984741,12.5399999619
"2006-10-08 17:00:00",17.4099998474,0.0879999995232,85.5,8.18999958038,8.56000041962,39.2000007629,12.470000267
"2006-10-08 18:00:00",17.3700008392,0.0869999974966,85.0,8.14999961853,8.52000045776,38.5,12.4600000381
"2006-10-08 19:00:00",17.2099990845,0.0869999974966,86.0999984741,8.27999973297,8.47000026703,42.5,12.4600000381
"2006-10-08 20:00:00",16.6499996185,0.0879999995232,87.5999984741,8.52999973297,8.43000030518,41.4000015259,12.4600000381
"2006-10-08 21:00:00",16.3999996185,0.0879999995232,87.5,8.56000041962,8.42000007629,38.9000015259,12.4499998093
"2006-10-08 22:00:00",16.4200000763,0.0879999995232,87.1999969482,8.52999973297,8.38000011444,41.7999992371,12.4499998093
"2006-10-08 23:00:00",16.0900001526,0.0879999995232,87.0,8.56999969482,8.35999965668,35.7999992371,12.4399995804
"2006-10-09 00:00:00",15.6400003433,0.0879999995232,86.6999969482,8.61999988556,8.35000038147,34.0999984741,12.4399995804
"2006-10-09 01:00:00",15.4499998093,0.0879999995232,86.1999969482,8.60999965668,8.35000038147,28.7000007629,12.4300003052
"2006-10-09 02:00:00",15.0699996948,0.0879999995232,86.0999984741,8.67000007629,8.32999992371,26.3999996185,12.4300003052
"2006-10-09 03:00:00",15.029999733,0.0879999995232,86.0999984741,8.68000030518,8.31999969482,29.2999992371,12.4200000763
"2006-10-09 04:00:00",14.9300003052,0.0869999974966,86.0,8.68000030518,8.31000041962,25.0,12.4099998474
"2006-10-09 05:00:00",15.0600004196,0.0860000029206,85.9000015259,8.64999961853,8.28999996185,24.0,12.4099998474
"2006-10-09 06:00:00",15.5100002289,0.0850000008941,86.0,8.57999992371,8.31999969482,22.2999992371,12.4099998474
"2006-10-09 07:00:00",17.2399997711,0.097000002861,86.1999969482,8.28999996185,8.36999988556,452.100006104,12.3999996185
"2006-10-09 08:00:00",17.5100002289,0.097000002861,84.6999969482,8.10000038147,8.31999969482,165.0,12.3999996185